Kuchera_Ratio
0.0 0.0 0.0 0.0 0.0 0.0 0.0 0.0 0.0 0.0 0.0 0.0 0.0 0.0 0.0 0.0 0.0 0.0 0.0 0.0 0.0 0.0 0.0 0.0 0.0 0.0 0.0 0.0 0.0 0.0 0.0 0.0 0.0 0.0 0.0 0.0 0.0 0.0 0.0 0.0 0.0 0.0 0.0
0.0 0.0 0.0 0.0 0.0 0.0 0.0 0.0 0.0 0.0 0.0 0.0 0.0 0.0 0.0 0.0 0.0 0.0 0.0 0.0 0.0 0.0 0.0 0.0 0.0 0.0 0.0 0.0 0.0 0.0 0.0 0.0 0.0 0.0 0.0 0.0 0.0 0.0 0.0 0.0 0.0 0.0 0.0
0.0 0.0 0.0 0.0 0.0 0.0 0.0 0.0 0.0 0.0 0.0 0.0 0.0 0.0 0.0 0.0 0.0 0.0 0.0 0.0 0.0 0.0 0.0 0.0 0.0 0.0 0.0 0.0 0.0 0.0 0.0 0.0 0.0 0.0 0.0 0.0 0.0 0.0 0.0 0.0 0.0 0.0 0.0
0.0 0.0 0.0 0.0 0.0 0.0 0.0 0.0 0.0 0.0 0.0 0.0 0.0 0.0 0.0 0.0 0.0 0.0 0.0 0.0 0.0 0.0 0.0 0.0 0.0 0.0 0.0 0.0 0.0 0.0 0.0 0.0 0.0 0.0 0.0 0.0 0.0 0.0 0.0 0.0 0.0 0.0 0.0
0.0 0.0 0.0 0.0 0.0 0.0 0.0 0.0 0.0 0.0 0.0 0.0 0.0 0.0 0.0 0.0 0.0 0.0 0.0 0.0 0.0 0.0 0.0 0.0 0.0 0.0 0.0 0.0 0.0 0.0 0.0 0.0 0.0 0.0 0.0 0.0 0.0 0.0 0.0 0.0 0.0 0.0 0.0
0.0 0.0 0.0 0.0 0.0 0.0 0.0 0.0 0.0 0.0 0.0 0.0 0.0 0.0 0.0 0.0 0.0 0.0 0.0 0.0 0.0 0.0 0.0 0.0 0.0 0.0 0.0 0.0 0.0 0.0 0.0 0.0 0.0 0.0 0.0 0.0 0.0 0.0 0.0 0.0 0.0 0.0 0.0
0.0 0.0 0.0 0.0 0.0 0.0 0.0 0.0 0.0 0.0 0.0 0.0 0.0 0.0 0.0 0.0 0.0 0.0 0.0 0.0 0.0 0.0 0.0 0.0 0.0 0.0 0.0 0.0 0.0 0.0 0.0 0.0 0.0 0.0 0.0 0.0 0.0 0.0 0.0 0.3 1.9 3.2 0.0
0.0 0.0 0.0 0.0 0.0 0.0 0.0 0.0 0.0 0.0 0.0 0.0 0.0 0.0 0.0 0.0 0.0 0.0 0.0 0.0 0.0 0.0 0.0 0.0 0.0 0.0 0.0 0.0 0.0 0.0 0.0 0.0 0.0 0.0 0.0 0.0 0.0 0.0 0.0 0.0 3.9 7.0 3.8
0.0 0.0 0.0 0.0 0.0 0.0 0.0 0.0 0.0 0.0 0.0 0.0 0.0 0.0 0.0 0.0 0.0 0.0 0.0 0.0 0.0 0.0 0.0 0.0 0.0 0.0 0.0 0.0 0.0 0.0 0.0 0.0 0.0 0.0 0.0 0.0 0.0 0.0 0.0 0.4 1.9 5.9 12.3
0.0 0.0 0.0 0.0 0.0 0.0 0.0 0.0 0.0 0.0 0.0 0.0 0.0 0.0 0.0 0.0 0.0 0.0 0.0 0.0 0.0 0.0 0.0 0.0 0.0 0.0 0.0 0.0 0.0 0.0 0.0 0.0 0.0 0.0 0.0 0.0 0.0 0.0 0.0 0.9 2.2 3.9 7.5
0.0 0.0 0.0 0.0 0.0 0.0 0.0 0.0 0.0 0.0 0.0 0.0 0.0 0.0 0.0 0.0 0.0 0.0 0.0 0.0 0.0 0.0 0.0 0.0 0.0 0.0 0.0 0.0 0.0 0.0 0.0 0.0 0.0 0.0 0.0 0.0 1.2 1.3 1.6 2.2 3.1 4.3 6.0
0.0 0.0 0.0 0.0 0.0 0.0 0.0 0.0 0.0 0.0 0.0 0.0 0.0 0.0 0.0 0.0 0.0 0.0 0.0 0.0 0.0 0.0 0.0 0.0 0.0 0.0 0.0 0.0 0.0 0.0 0.0 0.4 1.1 1.6 2.2 2.6 0.7 3.3 3.4 4.0 4.6 5.5 5.0
0.0 0.0 0.0 0.0 0.0 0.0 0.0 0.0 0.0 0.0 0.0 0.0 0.0 0.0 0.0 0.0 0.0 0.0 0.0 0.0 0.0 0.0 0.0 0.0 0.0 0.0 0.0 0.0 0.8 1.4 1.8 2.3 3.0 3.6 4.3 4.5 4.9 5.3 5.2 5.4 5.9 5.4 5.3
0.0 0.0 0.0 0.0 0.0 0.0 0.0 0.0 0.0 0.0 0.0 0.0 0.0 0.0 0.0 0.0 0.0 0.0 0.0 0.0 0.0 0.0 0.0 0.0 0.0 0.3 1.1 1.1 1.6 3.1 3.3 3.7 4.4 5.0 5.5 6.0 6.3 6.8 6.7 6.1 5.7 6.0 7.4
0.0 0.0 0.0 0.0 0.0 0.0 0.0 0.0 0.0 0.0 0.0 0.0 0.0 0.0 0.0 0.0 0.0 0.0 0.0 0.0 0.0 0.0 0.4 1.0 1.5 2.2 1.7 0.0 2.8 3.8 4.2 4.9 5.6 6.1 6.6 5.8 4.2 0.0 0.0 2.3 6.0 6.6 7.9
0.0 0.0 0.0 0.0 0.0 0.0 0.0 0.0 0.0 0.0 0.0 0.0 0.0 0.0 0.0 0.0 0.0 0.0 0.0 0.0 0.8 1.5 2.2 3.0 3.9 4.6 1.8 0.0 0.0 0.0 4.8 5.8 6.8 7.7 7.7 7.8 4.1 4.6 0.0 0.0 0.0 0.0 6.5
0.0 0.0 0.0 0.0 0.0 0.0 0.0 0.0 0.0 0.0 0.0 0.0 0.0 0.0 0.0 0.0 0.3 0.7 1.0 1.6 2.1 3.1 4.3 5.1 5.9 6.2 6.5 0.0 0.0 0.0 5.7 7.0 7.8 8.3 8.7 8.8 3.3 4.8 8.8 4.7 0.4 0.7 0.0
0.0 0.0 0.0 0.0 0.0 0.0 0.0 0.0 0.0 0.0 0.0 0.0 0.0 0.0 0.1 0.6 1.5 1.9 2.4 3.1 4.1 5.4 6.2 6.7 7.3 7.8 7.4 0.0 0.0 0.0 4.9 8.1 8.5 8.7 8.9 9.1 9.1 8.8 6.5 6.5 8.2 8.5 8.2
0.0 0.0 0.0 0.0 0.0 0.0 0.0 0.0 0.0 0.0 0.0 0.9 0.9 1.0 0.9 1.7 2.6 3.3 4.2 5.1 6.0 7.0 7.9 8.4 8.7 9.5 9.3 2.4 0.0 0.5 8.3 8.7 8.9 8.9 8.8 8.8 9.4 4.4 0.0 3.6 6.4 7.7 7.5
0.0 0.0 0.0 0.0 0.0 0.0 0.0 0.0 0.4 0.5 1.0 1.2 1.7 2.1 2.7 3.4 4.3 5.2 6.0 6.9 7.6 8.8 9.7 10.0 10.5 10.3 10.8 5.2 1.2 1.1 8.7 9.6 9.7 9.6 9.1 2.8 2.7 0.0 0.0 1.9 6.7 10.4 9.8
0.0 0.0 0.0 0.0 0.0 0.0 0.0 0.0 0.4 0.9 1.5 2.5 3.4 4.1 4.6 5.0 5.6 6.3 7.0 8.4 9.8 10.7 11.6 12.0 11.1 11.3 11.2 11.5 2.3 0.5 6.5 9.0 8.9 9.1 9.5 8.8 1.4 0.0 0.0 0.0 3.7 7.0 4.1
0.0 0.0 0.0 0.0 0.0 0.0 0.0 0.5 1.5 2.8 3.4 3.8 4.3 5.0 5.7 6.1 6.6 8.0 9.9 11.0 11.8 12.1 12.5 13.1 12.9 12.3 12.1 6.3 3.9 1.5 1.0 1.2 7.4 8.7 9.4 9.4 2.1 1.3 1.5 0.8 0.7 0.3 1.3
0.0 0.0 0.0 0.0 0.0 0.0 0.0 1.0 3.1 3.9 4.3 4.9 5.5 6.1 6.9 8.4 9.7 10.6 11.1 12.0 12.5 13.3 13.8 14.1 14.2 13.6 10.8 12.3 4.6 2.7 2.2 1.8 5.6 6.5 4.5 0.6 1.1 1.6 4.6 3.6 2.4 2.2 10.9
0.0 0.0 0.0 0.5 2.0 1.5 0.5 0.2 3.9 4.9 4.9 5.9 7.1 8.3 9.9 10.3 10.6 11.4 11.5 12.9 13.4 14.1 14.3 14.4 13.5 13.8 12.8 12.4 11.5 10.5 11.7 6.6 6.6 6.1 9.3 5.7 3.6 3.9 5.7 7.8 9.6 11.0 12.1
0.6 1.2 1.5 2.9 3.8 4.1 3.6 4.4 5.3 4.3 6.1 7.7 9.1 9.7 10.1 11.3 12.4 12.7 12.9 13.2 13.1 13.5 14.1 13.6 13.0 13.5 13.6 11.5 5.4 5.0 6.0 6.7 4.7 3.4 9.8 12.6 12.3 12.7 12.6 12.6 12.6 12.5 12.9
2.2 3.2 3.7 3.6 5.8 5.0 5.3 5.9 5.2 5.9 7.3 8.8 9.7 11.1 12.3 12.8 13.2 13.7 13.7 9.0 6.2 4.7 4.3 4.0 6.2 8.0 4.4 3.3 2.8 2.5 2.8 2.6 2.3 9.8 13.5 13.9 13.8 14.0 13.7 13.6 13.2 12.2 11.9